This is the latest recevied weather packets stored in our database for station/object SV9TNF-57. If no packets are shown the sender has not sent any weather packets the latest 10 day(s).
| Time | Temp. | Humidity | Pressure | Rain* | Wind** | Luminosity | Snow |
|---|---|---|---|---|---|---|---|
| 1788328416 | 29.44° C | 40% | 994.9 hPa | 0 mm | 6.71 m/s, 74° | - | - |
| 1788328116 | 29.44° C | 40% | 995.1 hPa | 0 mm | 8.94 m/s, 1° | - | - |
| 1788327816 | 29.44° C | 41% | 995.1 hPa | 0 mm | 6.26 m/s, 327° | - | - |
| 1788327528 | 29.44° C | 41% | 994.9 hPa | 0 mm | 5.81 m/s, 283° | - | - |
| 1788327216 | 28.89° C | 42% | 994.8 hPa | 0 mm | 5.36 m/s, 225° | - | - |
| 1788326916 | 28.33° C | 43% | 995.1 hPa | 0 mm | 7.15 m/s, 357° | - | - |
| 1788326616 | 28.33° C | 44% | 995.1 hPa | 0 mm | 3.13 m/s, 329° | - | - |
| 1788326316 | 28.33° C | 44% | 995 hPa | 0 mm | 5.36 m/s, 1° | - | - |
| 1788326016 | 27.78° C | 45% | 994.9 hPa | 0 mm | 4.92 m/s, 324° | - | - |
| 1788325716 | 27.78° C | 47% | 995.1 hPa | 0 mm | 2.68 m/s, 231° | - | - |
| 1788325415 | 27.22° C | 48% | 995 hPa | 0 mm | 0.45 m/s, 275° | - | - |
| 1788325116 | 27.22° C | 48% | 995.1 hPa | 0 mm | 1.34 m/s, 309° | - | - |
| 1788324815 | 26.67° C | 49% | 994.8 hPa | 0 mm | 3.13 m/s, 281° | - | - |
| 1788324515 | 26.67° C | 49% | 994.9 hPa | 0 mm | 0.45 m/s, 309° | - | - |
| 1788324215 | 26.67° C | 49% | 995.1 hPa | 0 mm | 0.45 m/s, 323° | - | - |
| 1788323915 | 26.67° C | 49% | 995 hPa | 0 mm | 2.68 m/s, 315° | - | - |
| 1788323615 | 26.67° C | 49% | 994.9 hPa | 0 mm | 0.45 m/s, 280° | - | - |
| 1788323315 | 26.67° C | 50% | 994.6 hPa | 0 mm | 0.89 m/s, 313° | - | - |
| 1788323015 | 26.67° C | 49% | 994.6 hPa | 0 mm | 2.24 m/s, 40° | - | - |
| 1788322714 | 26.67° C | 50% | 994.6 hPa | 0 mm | 4.92 m/s, 358° | - | - |
| 1788322414 | 26.11° C | 51% | 994.5 hPa | 0 mm | 1.34 m/s, 263° | - | - |
| 1788322114 | 25.56° C | 52% | 994.4 hPa | 0 mm | 0.89 m/s, 307° | - | - |
| 1788321814 | 26.11° C | 51% | 994.6 hPa | 0 mm | 1.34 m/s, 307° | - | - |
| 1788321514 | 26.11° C | 51% | 994.6 hPa | 0 mm | 2.68 m/s, 343° | - | - |
| 1788321214 | 26.11° C | 50% | 994.6 hPa | 0 mm | 2.68 m/s, 259° | - | - |
* Rain latest hour (hover to see other rain measurements)
** Current wind speed in m/s (hover to see current wind gust speed)